{"data":{"norad_id":68396,"intl_designator":"2026-063S","name":"STARLINK-37190","alt_names":[],"object_type":"PAYLOAD","status":"ACTIVE","operator":null,"country":"US","launch_date":"2026-03-26","launch_site_code":"AFWTR","launch_vehicle":null,"mission":null,"orbit_class":"UNKNOWN","rcs_meters":null,"size_class":null,"mass_kg":null,"dimensions":null,"purposes":["comms"],"wikipedia_slug":null,"has_3d_model":false,"image_url":null,"decayed_at":null,"tle_current":{"epoch":"2026-09-20T02:47:22.036128Z","epoch_age_seconds":80473,"freshness":"FRESH","line1":"1 68396U 26063S   26263.11622727  .00014528  00000+0  45119-3 0  9998","line2":"2 68396  97.2848  44.0426 0001577  85.6107 274.5316 15.33463805 27699","mean_motion":15.33463805,"eccentricity":0.0001577,"inclination_deg":97.2848,"raan_deg":44.0426,"arg_perigee_deg":85.6107,"mean_anomaly_deg":274.5316,"bstar":0.00045119,"rev_number":2769,"period_min":93.90505307688,"perigee_km":464.40798506013,"apogee_km":466.56646414056,"semimajor_km":6843.6242246003,"source":"CELESTRAK","updated_at":"2026-09-20T09:00:43.897339Z"}}}